Location: Moscow
(55.7500°N, 37.5830°E)
Time: 13:23:39
(UTC+03:00)

S-56A Canister/Altair - Pass Details

Date: 08 December 2021
Orbit: 633 x 2499 km, 38.9° (Epoch: 17 January)

Event Time Altitude Azimuth Distance (km) Brightness Sun altitude
Rises 00:03:35 0° 231° (SW) 5,407 - -56.8°
Reaches altitude 10° 00:08:26 10° 219° (SW) 4,071 - -56.9°
Maximum altitude 00:15:41 22° 174° (S) 2,653 - -56.9°
Drops below altitude 10° 00:21:14 10° 126° (SE) 3,015 - -57.0°
Sets 00:24:11 0° 111° (ESE) 3,719 - -57.0°
